Regional Weather Roundup
Issued by NWS Goodland, KS

Home | Current Version | Previous Version | Graphics & Text | Print | Product List | Glossary On
Versions: 1 2 3 4 5 6 7 8 9 10 11 12 13 14 15 16 17 18 19 20 21 22 23 24 25 26 27 28 29 30 31 32 33 34 35 36 37 38 39 40 41 42 43 44 45 46 47 48 49 50
000
ASUS43 KGLD 290808
RWRGLD

GOODLAND FORECAST AREA HOURLY WEATHER ROUNDUP
NATIONAL WEATHER SERVICE GOODLAND KS
200 AM MDT FRI AUG 29 2014

...OFFICIAL OBSERVATIONS...

CITY           SKY/WX    TMP DP  RH WIND       PRES   REMARKS
GOODLAND KS    CLEAR     57  55  93 W8        29.98F
HILL CITY KS   CLOUDY    67  60  78 W8        29.88F
IMPERIAL NEB   CLEAR     58  53  84 NW9       29.94F
MCCOOK NEB     PTCLDY    59  56  89 SW6       29.91F
AKRON CO       CLEAR     55  51  86 W13       30.03F
BURLINGTON CO  PTCLDY    55  52  89 W6        30.01F
LIMON CO       CLEAR     49  47  93 N5        30.10F
$$

...UNOFFICIAL OBSERVATIONS...

CITY           SKY/WX    TMP DP  RH WIND       PRES   REMARKS
COLBY KS       CLEAR     57  57 100 W6        29.95F
GOVE KS          N/A     62  32  32 CALM        N/A
NORTON KS      CLEAR     63  54  72 W9        29.87S
SHARON SPRINGS   N/A     56  54  94 CALM        N/A
WAKEENEY KS      N/A     66  60  80 MISG        N/A
KIT CARSON CO    N/A     58  51  77 CALM        N/A
YUMA CO          N/A     56  52  86 NW9         N/A
$$



USA.gov is the U.S. government's official web portal to all federal, state and local government web resources and services.